Retour au catalogue

QIANFAN-120

ActifCommunicationsPO
NORAD 68647·PAYLOAD·🇨🇳 China

Lancé Apr 7, 2026 depuis Wenchang Space Launch Site

Loading…

Prochains Passages (prochaines 24 heures)

TLE

FraisSource: Space-Track

Époque: Sep 14, 2026, 13:45 UTC

1 68647U 26075M   26257.57320231  .00000066  00000-0  82845-4 0  9999
2 68647  88.9877 311.8705 0002047  86.7522 273.3863 13.51019901 21889

Suivez QIANFAN-120 en temps réel avec AllMySat

Download on the App Store